DG8RAD-1 Weather Reports


time (UTC)temp
C
wind
direction
speed
KPH
gust
KPH
rain 1hr
cm
rain 24hr
cm
rain mn
cm
humidity
%
barometer
mb
20260507090006 18 0 0.0 0.0 0.00 0.00 0.00 41 1016.0
20260507084506 18 0 0.0 0.0 0.00 0.00 0.00 41 1016.0
20260507083006 18 0 0.0 0.0 0.00 0.00 0.00 41 1015.0
20260507081507 18 0 0.0 0.0 0.00 0.00 0.00 41 1015.0
20260507080005 19 0 0.0 0.0 0.00 0.00 0.00 40 1015.0
20260507074505 19 0 0.0 0.0 0.00 0.00 0.00 40 1015.0
20260507073005 18 0 0.0 0.0 0.00 0.00 0.00 42 1015.0
20260507071505 18 0 0.0 0.0 0.00 0.00 0.00 42 1015.0
20260507070009 18 0 0.0 0.0 0.00 0.00 0.00 43 1015.0
20260507064505 17 0 0.0 0.0 0.00 0.00 0.00 44 1015.0
20260507063005 17 0 0.0 0.0 0.00 0.00 0.00 45 1015.0
20260507061505 17 0 0.0 0.0 0.00 0.00 0.00 45 1015.0
20260507060005 17 0 0.0 0.0 0.00 0.00 0.00 46 1014.0
20260507054505 17 0 0.0 0.0 0.00 0.00 0.00 46 1014.0
20260507053005 17 0 0.0 0.0 0.00 0.00 0.00 48 1014.0
20260507051505 16 0 0.0 0.0 0.00 0.00 0.00 48 1014.0
20260507050005 16 0 0.0 0.0 0.00 0.00 0.00 48 1014.0
20260507044505 16 0 0.0 0.0 0.00 0.00 0.00 48 1014.0
20260507043005 16 0 0.0 0.0 0.00 0.00 0.00 48 1013.0
20260507041505 16 0 0.0 0.0 0.00 0.00 0.00 49 1013.0
20260507040005 16 0 0.0 0.0 0.00 0.00 0.00 48 1013.0
20260507034505 16 0 0.0 0.0 0.00 0.00 0.00 49 1013.0
20260507033005 16 0 0.0 0.0 0.00 0.00 0.00 48 1013.0
20260507031505 16 0 0.0 0.0 0.00 0.00 0.00 49 1013.0
20260507030005 16 0 0.0 0.0 0.00 0.00 0.00 49 1013.0
20260507024505 16 0 0.0 0.0 0.00 0.00 0.00 48 1013.0
20260507023005 16 0 0.0 0.0 0.00 0.00 0.00 48 1013.0
20260507021505 16 0 0.0 0.0 0.00 0.00 0.00 47 1013.0
20260507020005 16 0 0.0 0.0 0.00 0.00 0.00 47 1013.0
20260507014505 16 0 0.0 0.0 0.00 0.00 0.00 47 1013.0
20260507013005 16 0 0.0 0.0 0.00 0.00 0.00 47 1013.0
20260507011505 16 0 0.0 0.0 0.00 0.00 0.00 47 1013.0
20260507010005 16 0 0.0 0.0 0.00 0.00 0.00 48 1013.0
20260507004505 16 0 0.0 0.0 0.00 0.00 0.00 48 1013.0
20260507003005 16 0 0.0 0.0 0.00 0.00 0.00 48 1013.0
20260507001505 17 0 0.0 0.0 0.00 0.00 0.00 47 1013.0
20260507000005 17 0 0.0 0.0 0.00 0.00 0.00 47 1013.0
20260506234505 17 0 0.0 0.0 0.00 0.00 0.00 47 1013.0
20260506233005 17 0 0.0 0.0 0.00 0.00 0.00 47 1013.0
20260506231505 17 0 0.0 0.0 0.00 0.00 0.00 47 1013.0
20260506230005 17 0 0.0 0.0 0.00 0.00 0.00 46 1013.0
20260506214505 17 0 0.0 0.0 0.00 0.00 0.00 47 1012.0
20260506213005 17 0 0.0 0.0 0.00 0.00 0.00 48 1012.0
20260506211505 17 0 0.0 0.0 0.00 0.00 0.00 47 1012.0
20260506210005 17 0 0.0 0.0 0.00 0.00 0.00 46 1012.0
20260506204505 17 0 0.0 0.0 0.00 0.00 0.00 46 1012.0
20260506203005 17 0 0.0 0.0 0.00 0.00 0.00 46 1012.0
20260506201505 17 0 0.0 0.0 0.00 0.00 0.00 46 1012.0
20260506200005 17 0 0.0 0.0 0.00 0.00 0.00 47 1012.0
20260506194505 17 0 0.0 0.0 0.00 0.00 0.00 46 1012.0
20260506193005 18 0 0.0 0.0 0.00 0.00 0.00 45 1011.0
20260506191505 18 0 0.0 0.0 0.00 0.00 0.00 45 1012.0
20260506190006 17 0 0.0 0.0 0.00 0.00 0.00 46 1011.0
20260506184506 18 0 0.0 0.0 0.00 0.00 0.00 45 1011.0
20260506183005 18 0 0.0 0.0 0.00 0.00 0.00 44 1011.0
20260506181505 18 0 0.0 0.0 0.00 0.00 0.00 44 1010.0
20260506180006 17 0 0.0 0.0 0.00 0.00 0.00 44 1010.0
20260506174505 18 0 0.0 0.0 0.00 0.00 0.00 45 1010.0
20260506173008 18 0 0.0 0.0 0.00 0.00 0.00 44 1010.0
20260506171505 20 0 0.0 0.0 0.00 0.00 0.00 43 1009.0
20260506170005 20 0 0.0 0.0 0.00 0.00 0.00 42 1009.0
20260506164505 24 0 0.0 0.0 0.00 0.00 0.00 41 1009.0
20260506163005 26 0 0.0 0.0 0.00 0.00 0.00 38 1008.0
20260506161505 26 0 0.0 0.0 0.00 0.00 0.00 37 1008.0
20260506160005 32 0 0.0 0.0 0.00 0.00 0.00 28 1008.0
20260506154505 32 0 0.0 0.0 0.00 0.00 0.00 29 1008.0
20260506153005 28 0 0.0 0.0 0.00 0.00 0.00 37 1008.0
20260506151505 21 0 0.0 0.0 0.00 0.00 0.00 52 1008.0
20260506150005 20 0 0.0 0.0 0.00 0.00 0.00 52 1009.0
20260506144505 19 0 0.0 0.0 0.00 0.00 0.00 52 1008.0
20260506143007 20 0 0.0 0.0 0.00 0.00 0.00 49 1008.0
20260506141505 23 0 0.0 0.0 0.00 0.00 0.00 39 1007.0
20260506140005 25 0 0.0 0.0 0.00 0.00 0.00 33 1007.0
20260506134505 25 0 0.0 0.0 0.00 0.00 0.00 32 1007.0
20260506133005 27 0 0.0 0.0 0.00 0.00 0.00 30 1007.0
20260506131505 28 0 0.0 0.0 0.00 0.00 0.00 29 1006.0
20260506130005 28 0 0.0 0.0 0.00 0.00 0.00 29 1007.0
20260506124505 27 0 0.0 0.0 0.00 0.00 0.00 30 1007.0
20260506123005 26 0 0.0 0.0 0.00 0.00 0.00 31 1007.0
20260506121505 27 0 0.0 0.0 0.00 0.00 0.00 30 1007.0
20260506120005 27 0 0.0 0.0 0.00 0.00 0.00 30 1007.0
20260506114505 26 0 0.0 0.0 0.00 0.00 0.00 31 1008.0
20260506113005 26 0 0.0 0.0 0.00 0.00 0.00 30 1008.0
20260506111505 26 0 0.0 0.0 0.00 0.00 0.00 31 1008.0
20260506110005 26 0 0.0 0.0 0.00 0.00 0.00 32 1008.0
20260506104505 26 0 0.0 0.0 0.00 0.00 0.00 31 1008.0
20260506103005 25 0 0.0 0.0 0.00 0.00 0.00 31 1008.0
20260506101505 25 0 0.0 0.0 0.00 0.00 0.00 31 1009.0
20260506100005 24 0 0.0 0.0 0.00 0.00 0.00 32 1009.0
20260506094505 24 0 0.0 0.0 0.00 0.00 0.00 34 1009.0
20260506093005 24 0 0.0 0.0 0.00 0.00 0.00 33 1009.0
20260506091505 24 0 0.0 0.0 0.00 0.00 0.00 34 1008.0